Regional Weather Roundup
Issued by NWS Grand Forks, ND

Home | Current Version | Previous Version | Graphics & Text | Print | Product List | Glossary On
Versions: 1 2 3 4 5 6 7 8 9 10 11 12 13 14 15 16 17 18 19 20 21 22 23 24 25 26 27 28 29 30 31 32 33 34 35 36 37 38 39 40 41 42 43 44 45 46 47 48 49 50
622
ASUS43 KFGF 071810
RWRFGF
PRAIRIE TO PINES  WEATHER ROUNDUP
NATIONAL WEATHER SERVICE EASTERN NORTH DAKOTA/GRAND FORKS ND
1200 PM CST SUN FEB 07 2016

 **SATELLITE DATA USED TO AUGMENT SKY COVER AT AUTOMATED STATIONS**
 *****  WEATHER ACROSS EASTERN NORTH DAKOTA  *****

CITY           SKY/WX    TMP DP  RH WIND       PRES   REMARKS
GRAND FORKS    CLOUDY    26  19  74 N29G37    29.71R WCI  10
6HR MIN TEMP:  26; 6HR MAX TEMP:  37; 6HR PCP:  0.01;

GRAND FRKS AFB CLOUDY    25  16  68 N25G44    29.72R WCI   9
GRAND FRKS NWS   N/A     25 N/A N/A N24         N/A  WCI   9
DEVILS LAKE    FLURRIES  23  17  78 NW33G43   29.78R WCI   5
6HR MIN TEMP:  23; 6HR MAX TEMP:  34; 6HR PCP: TRACE;

FARGO          LGT SNOW  33  29  85 N22       29.68R FOG     WCI  21
WAHPETON ARPT  CLOUDY    34  32  93 NW24      29.67R WCI  21
$$

 ***** WEATHER ACROSS CENTRAL AND WESTERN NORTH DAKOTA  *****

CITY           SKY/WX    TMP DP  RH WIND       PRES   REMARKS
BISMARCK       CLOUDY    33  18  53 NW38G53   29.94R WCI  18
6HR MIN TEMP:  33; 6HR MAX TEMP:  39; 6HR PCP: TRACE;

MINOT          FLURRIES  29  15  56 NW39G49   29.95R WCI  12
6HR MIN TEMP:  27; 6HR MAX TEMP:  37; 6HR PCP: TRACE;

JAMESTOWN      LGT SNOW  29  24  82 NW33G44   29.77R WCI  13
6HR MIN TEMP:  29; 6HR MAX TEMP:  34; 6HR PCP: TRACE;

MINOT AFB      CLOUDY    26  16  67 NW33G52   29.94R WCI   8
GARRISON         N/A     28  19  69 NW44G55   29.94R WCI  10
WILLISTON      MOSUNNY   33  19  56 NW36G46   30.13R WCI  18
6HR MIN TEMP:  31; 6HR MAX TEMP:  33; 6HR PCP: TRACE;

DICKINSON      CLOUDY    31  16  54 NW32G47   30.05R WCI  16
6HR MIN TEMP:  27; 6HR MAX TEMP:  31; 6HR PCP: TRACE;

HETTINGER      PTSUNNY   35  15  44 NW43G55   30.07R WCI  20
6HR MIN TEMP:  30; 6HR MAX TEMP:  35; 6HR PCP:  0.01;

$$

 *****  OTHER AIRPORT OBSERVATIONS IN OUR AREA  *****

CITY           SKY/WX    TMP DP  RH WIND       PRES   REMARKS
WALHALLA       FLURRIES  19  14  79 NW35G48   29.78R WCI  -1
GRAFTON AIRPOR CLOUDY    21  16  79 NW29G38   29.75R WCI   3
VALLEY CITY AR FLURRIES  30  25  80 NW36G49   29.74R WCI  14
CANDO          NOT AVBL
CAVALIER APRT  MOCLDY    19  14  79 N24G41    29.76R WCI   2
GWINNER        CLOUDY    34  32  93 NW28G38   29.73R WCI  20
SHEYENNE NWR     N/A     35  30  83 NW21      29.95S WCI  24
ROLLA          LGT SNOW  18  10  73 N39G53    29.80R WCI  -4
 ***** THE ABOVE OBSERVATIONS ARE NON NWS ARE NOT QUALITY
       CONTROLLED AND MAY MIS-REPORT RAIN FOR SNOW...
$$

  *****  WEATHER ACROSS NORTHERN MINNESOTA  *****

CITY           SKY/WX    TMP DP  RH WIND       PRES   REMARKS
FLAG ISLAND    LGT SNOW  27  21  80 NW24      29.50R WCI  12
WARROAD        LGT SNOW  25  19  80 NW20G33   29.54R WCI  11
ROSEAU         LGT SNOW  25  19  80 NW18      29.56R VSB 1   WCI  11
HALLOCK        SNOW      18  16  93 NW35G44   29.70R VSB 1/4 WCI  -3
THF RVR FALLS  NOT AVBL
BAUDETTE       LGT SNOW  27  22  81 NW18      29.48R VSB 1   WCI  14
6HR MIN TEMP:  27; 6HR MAX TEMP:  33; 6HR PCP: TRACE;

WASKISH        LGT SNOW  28  27  93 W13G21    29.50R VSB 1   WCI  18
CROOKSTON      LGT SNOW  23  19  86 N35G44    29.69R WCI   4
STEPHEN NDAWN    N/A     18  16  93 NW33        N/A  WCI  -3
GREENBUSH NDAW   N/A     19  18  93 NW25        N/A  WCI   2
$$
  *****  WEATHER ACROSS CENTRAL AND WEST MINNESOTA  *****

CITY           SKY/WX    TMP DP  RH WIND       PRES   REMARKS
FOSSTON        LGT SNOW  23  19  86 NW17G32   29.62R WCI   9
BEMIDJI        LGT SNOW  28  25  91 W21       29.52R VSB 1   WCI  14
PARK RAPIDS    SNOW      33  29  85 NW26G37   29.54R VSB 1/2 WCI  20
6HR MIN TEMP:  33; 6HR MAX TEMP:  34; 6HR PCP:  0.02;

ELBOW LAKE     CLOUDY    34  31  88 NW21      29.65S FOG     WCI  22
WADENA         LGT RAIN  34  30  86 W14       29.57S WCI  24
DETROIT LAKES  LGT SNOW  34  32  93 NW25      29.61R WCI  21
MOORHEAD       HVY RAIN  34  30  86 N28G37    29.67R WCI  20
FERGUS FALLS   LGT SNOW  34  30  86 W20G25    29.66S WCI  22
MORRIS MN      CLOUDY    36  30  80 W22G29    29.66S
STAPLES        CLOUDY    32  30  93 W15       29.56F FOG     WCI  22
$$
  *****  WEATHER ELSEWHERE ACROSS MINNESOTA  *****

CITY           SKY/WX    TMP DP  RH WIND       PRES   REMARKS
DULUTH         FLURRIES  34  31  88 W15       29.45S WCI  24
6HR MIN TEMP:  32; 6HR MAX TEMP:  35; 6HR PCP:  0.04;

INTRNTL FALLS  CLOUDY    31  27  85 W14       29.43R WCI  21
6HR MIN TEMP:  31; 6HR MAX TEMP:  34; 6HR PCP:  0.01;

ELY            CLOUDY    34  32  93 W7        29.40S FOG
CLOQUET        LGT SNOW  36  32  87 W10       29.46F
WHEATON        CLOUDY    37  32  81 W26       29.70S
BRAINERD       CLOUDY    34  29  82 W14G22    29.54S WCI  25
6HR MIN TEMP:  33; 6HR MAX TEMP:  35; 6HR PCP: TRACE;

HIBBING        CLOUDY    33  30  88 W10       29.42F WCI  25
6HR MIN TEMP:  30; 6HR MAX TEMP:  33; 6HR PCP: TRACE;

ALEXANDRIA     CLOUDY    35  28  75 W20G28    29.62S WCI  24
6HR MIN TEMP:  34; 6HR MAX TEMP:  36; 6HR PCP: TRACE;

SAINT CLOUD    CLOUDY    38  27  64 W21G29    29.60S
6HR MIN TEMP:  36; 6HR MAX TEMP:  38;

MINNEAPOLIS    PTSUNNY   40  25  55 W16G31    29.63F
6HR MIN TEMP:  34; 6HR MAX TEMP:  40;

$$

  *****  WEATHER ACROSS SOUTH DAKOTA  *****

CITY           SKY/WX    TMP DP  RH WIND       PRES   REMARKS
SIOUX FALLS    PTSUNNY   36  27  69 NW29G40   29.84R
6HR MIN TEMP:  34; 6HR MAX TEMP:  38;

BROOKINGS      FLURRIES  33  29  85 NW26G33   29.76F WCI  20
WATERTOWN      CLOUDY    34  28  79 NW24G31   29.74F WCI  21
6HR MIN TEMP:  33; 6HR MAX TEMP:  35; 6HR PCP: TRACE;

HURON          LGT SNOW  33  29  85 NW31G38   29.86S FOG     WCI  19
6HR MIN TEMP:  33; 6HR MAX TEMP:  37; 6HR PCP: TRACE;

SISSETON         N/A     37  29  72 NW30G44   29.69R
ABERDEEN       FLURRIES  36  25  64 NW35G47   29.82R
6HR MIN TEMP:  34; 6HR MAX TEMP:  38; 6HR PCP: TRACE;

MITCHELL       LGT SNOW  35  30  82 W31G40    29.91F WCI  22
PIERRE         CLOUDY    37  22  54 NW37G55   29.96R
6HR MIN TEMP:  34; 6HR MAX TEMP:  38; 6HR PCP: TRACE;

MOBRIDGE       CLOUDY    35  24  64 NW32G51   29.90R WCI  21
RAPID CITY     SUNNY     39   8  27 NW52G66   30.16R
6HR MIN TEMP:  34; 6HR MAX TEMP:  39;

$$

  *****  SOME WEATHER IN NEARBY STATES *****

CITY           SKY/WX    TMP DP  RH WIND       PRES   REMARKS
GLASGOW MT     SUNNY     32  20  61 NW29G36   30.31R WCI  18
6HR MIN TEMP:  27; 6HR MAX TEMP:  32;

GREAT FALLS MT SUNNY     38  17  42 SW12      30.47S
6HR MIN TEMP:  19; 6HR MAX TEMP:  38;

CHEYENNE WY    CLOUDY    29  17  61 N29G41    30.29R WCI  14
6HR MIN TEMP:  22; 6HR MAX TEMP:  32;

SCOTTSBLUFF NE CLOUDY    34  17  50 NW24G43   30.32R WCI  21
6HR MIN TEMP:  30; 6HR MAX TEMP:  35; 6HR PCP: TRACE;

OMAHA NE       CLOUDY    42  27  55 W18G24    30.00S
6HR MIN TEMP:  38; 6HR MAX TEMP:  42;

DES MOINES IA  PTSUNNY   43  26  51 W16       29.90F
6HR MIN TEMP:  35; 6HR MAX TEMP:  43;

DAVENPORT IA   SUNNY     44  31  60 W22G28    29.80F
6HR MIN TEMP:  36; 6HR MAX TEMP:  44;

CHICAGO IL     CLOUDY    42  30  62 SW17G28   29.74F
6HR MIN TEMP:  38; 6HR MAX TEMP:  42;

EAU CLAIRE WI  CLOUDY    39  27  62 W16       29.59F
6HR MIN TEMP:  30; 6HR MAX TEMP:  39;

LA CROSSE WI   SUNNY     41  26  55 W14       29.68F
6HR MIN TEMP:  31; 6HR MAX TEMP:  41;

$$

  *****  SOME NATIONAL WEATHER *****

CITY           SKY/WX    TMP DP  RH WIND       PRES   REMARKS
LA GUARDIA NY  CLOUDY    46  22  38 NE3       30.12F
6HR MIN TEMP:  34; 6HR MAX TEMP:  46;

RALEIGH NC     CLOUDY    41  22  46 NE12      30.00F
6HR MIN TEMP:  37; 6HR MAX TEMP:  41;

ATLANTA GA     MOSUNNY   52  23  32 NW12      30.11F
6HR MIN TEMP:  29; 6HR MAX TEMP:  52;

NEW ORLEANS LA MOSUNNY   57  22  25 N8        30.28F
6HR MIN TEMP:  37; 6HR MAX TEMP:  57;

OKLAHOMA CITY  MOSUNNY   53  26  35 N15       30.17S
6HR MIN TEMP:  28; 6HR MAX TEMP:  53;

ALBUQUERQUE NM MOSUNNY   45  15  30 NW7       30.40R
6HR MIN TEMP:  30; 6HR MAX TEMP:  45;

SALT LAKE CITY MOSUNNY   34  23  64 CALM      30.60R
6HR MIN TEMP:  23; 6HR MAX TEMP:  34;

LOS ANGELES CA SUNNY     73  25  16 E6        30.14F
6HR MIN TEMP:  51; 6HR MAX TEMP:  73;

BOISE ID       SUNNY   C1F1C2F2C3F3C4F4C5F5C6F6C7F7C8F8C9F9CaFaCbFbCcFcCd!



USA.gov is the U.S. government's official web portal to all federal, state and local government web resources and services.